Location: �couen
(49.0206°N, 2.3831°E)
Time: 12:29:41
(UTC+00:00)

Cosmos 1758 - Visible Passes

Search period start: 29 May 2022 00:00
Search period end: 08 June 2022 00:00
Orbit: 535 x 560 km, 82.5° (Epoch: 29 May)

Date Brightness Start Highest point End Pass type
(mag) Time Alt. Az. Time Alt. Az. Time Alt. Az.
29 May 5.5 22:03:51 10° NNE 22:06:23 16° ENE 22:08:18 12° E visible
29 May 3.7 23:39:13 10° NNW 23:43:07 52° W 23:43:58 43° SW visible
30 May 5.4 21:58:46 10° NNE 22:01:26 17° ENE 22:03:23 13° E visible
30 May 3.8 23:34:15 10° NNW 23:38:07 49° W 23:39:03 40° SW visible
31 May 5.3 21:53:41 10° NNE 21:56:29 18° ENE 21:58:29 13° ESE visible
31 May 3.9 23:29:18 10° NNW 23:33:08 45° W 23:34:09 37° SW visible
01 Jun 5.2 21:48:37 10° NNE 21:51:32 19° ENE 21:53:35 14° ESE visible
01 Jun 4.1 23:24:20 10° NNW 23:28:08 42° W 23:29:15 34° SW visible
02 Jun 5.1 21:43:32 10° NNE 21:46:34 20° ENE 21:48:41 14° ESE visible
02 Jun 4.2 23:19:23 10° NNW 23:23:08 39° W 23:24:22 31° SW visible
03 Jun 5.0 21:38:28 10° NNE 21:41:36 21° ENE 21:43:48 14° ESE visible
03 Jun 4.3 23:14:25 10° NNW 23:18:08 37° W 23:19:29 28° SW visible
04 Jun 4.9 21:33:25 10° NNE 21:36:38 23° ENE 21:38:56 15° ESE visible
04 Jun 4.4 23:09:27 10° NNW 23:13:07 35° W 23:14:37 26° SW visible
05 Jun 4.8 21:28:20 10° NNE 21:31:40 24° ENE 21:34:04 15° ESE visible
05 Jun 4.6 23:04:29 10° NNW 23:08:06 32° W 23:09:45 23° SW visible
06 Jun 4.8 21:23:17 10° NNE 21:26:41 26° ENE 21:29:13 15° ESE visible
06 Jun 4.7 22:59:31 10° NNW 23:03:05 30° W 23:04:53 21° SW visible
07 Jun 4.7 21:18:13 10° NNE 21:21:42 27° ENE 21:24:22 14° ESE visible
07 Jun 4.8 22:54:34 10° NNW 22:58:04 29° W 23:00:03 19° SW visible
